Regional Weather Roundup
Issued by NWS Newport/Morehead, NC

Current Version | Previous Version | Text Only | Print | Product List | Glossary On
Versions: 1 2 3 4 5 6 7 8 9 10 11 12 13 14 15 16 17 18 19 20 21 22 23 24 25 26 27 28 29 30 31 32 33 34 35 36 37 38 39 40 41 42 43 44 45 46 47 48 49 50
683 ASUS42 KMHX 171313 RWRMHX WEATHER ROUNDUP FOR EASTERN NORTH CAROLINA NATIONAL WEATHER SERVICE NEWPORT/MOREHEAD CITY NC 900 AM EDT THU AUG 17 2017 NOTE: "FAIR" INDICATES FEW OR NO CLOUDS BELOW 12,000 FEET WITH NO SIGNIFICANT WEATHER AND/OR OBSTRUCTIONS TO VISIBILITY NCZ015>017-031-032-045>047-102-103-171400- NORTH COAST CITY SKY/WX TMP DP RH WIND PRES REMARKS EDENTON SUNNY 81 76 84 CALM 30.06S ELIZABETH CITY SUNNY 79 77 94 S3 30.05S KITTY HAWK SUNNY 76 76 98 CALM 30.05R MANTEO MOSUNNY 77 73 87 CALM 30.07R $$ NCZ045>047-081-094-103-104-171400- CENTRAL COAST CITY SKY/WX TMP DP RH WIND PRES REMARKS FRISCO SUNNY 82 75 79 VRB3 30.05S $$ NCZ095-097-098-100-101-171400- SOUTHERN COAST CITY SKY/WX TMP DP RH WIND PRES REMARKS BEAUFORT SUNNY 83 78 85 E5 30.05S CEDAR ISLAND NOT AVBL JACKSONVILLE MOSUNNY 83 80 91 SE6 30.04S PINEY ISLAND PTSUNNY N/A N/A N/A VRB3 30.05R WILMINGTON PTSUNNY 84 79 85 SE7 30.04R $$ NCZ011>013-027>030-043-044-078>080-089-090>093-098-171400- COASTAL PLAIN CITY SKY/WX TMP DP RH WIND PRES REMARKS AHOSKIE N/A 75 75 98 S6 30.05F FOG CLINTON PTSUNNY 80 78 92 CALM 30.05S ELIZABETHTOWN NOT AVBL GOLDSBORO MOSUNNY 81 81 100 SE3 30.04R GREENVILLE SUNNY 82 77 83 CALM 30.06S HAVELOCK SUNNY 82 77 84 E5 30.06S KENANSVILLE SUNNY 81 75 83 CALM 30.05S KINSTON SUNNY 81 79 94 SE3 30.06R NEW BERN SUNNY 82 78 88 SE3 30.06S RICHLANDS PTSUNNY 82 79 90 S6 30.05S ROCKY MOUNT CLOUDY 76 76 100 SE3 30.05S FOG WASHINGTON SUNNY 81 77 89 SE5 30.05F WHITEVILLE CLOUDY 79 78 97 CALM 30.03S FOG $$ AMZ130-135-150-152-154-156-158-170-250-252-270-ANZ085-086-088-633-658-670-171400- MARINE OBSERVATIONS STATION/POSITION TIME TEMP WIND PRES WAVE SWELL AIR SEA DIR/SP/G HT/PER HT/PER (UTC) (F) (DEG/KT/KT) (MB) (FT/S) (FT/S) CHESAPEAKE LIGHT NOT AVBL 64 E VA BEACH 1250 76 77 10/ 2/ 2 1018.2 2/ 8 2/ 8 DUCK 1248 80 78 100/ 2/ 2 1017.5 2 E DUCK 1300 78 N/A 2/ 8 OREGON INLET 1236 78 82 10/ 4/ 5 1017.7 13E OREGON INLT 1248 79 N/A 2/ 7 2/ 7 HATTERAS CG 1248 80 83 20/ 5/ 6 1017.5 DIAMOND BUOY 1250 79 82 10/ 6/ 8 1017.4 2/ 7 2/ 7 CAPE LOOKOUT 1300 81 90/ 5/ 6 1017.3 BEAUFORT LAB 1248 81 81 130/ 5/ 6 1016.9 30 SE NEW RVR IN 1208 81 83 100/ 6/ 8 1017.4 30 SE NEW RVR IN 1243 83 N/A 2/ 6 27 SE WRIGHTSVLE 1208 83 83 130/ 8/ 10 1017.2 5 SE WRIGHTSVLE 1208 83 83 140/ 8/ 12 1016.9 225 S CAPE HAT 1250 81 84 220/ 6/ 8 1017.8 3/ 5 3/ 5 41 SE CHARLESTON 1250 83 83 220/ 6/ 8 1016.5 2/ 4 2/ 4 $$

USA.gov is the U.S. government's official web portal to all federal, state and local government web resources and services.